Probability
0 1 3 5 7 9 11 14 14 12 11 10 9 8 10 12 11 10 11 13 11 6 2 3 4 4 1 0 0 0 0 0 0 0 0 0 0 0 0 0 0 0 0
1 2 3 4 5 6 9 13 15 15 14 13 12 11 11 12 11 11 11 12 11 7 4 3 3 3 1 1 0 0 0 0 0 0 0 0 0 0 0 0 0 0 0
0 1 2 3 3 4 6 10 14 17 18 17 16 14 14 12 12 12 12 10 9 7 5 4 4 3 3 2 1 0 0 0 0 0 0 0 0 0 0 0 0 0 0
0 0 1 2 3 3 4 6 11 15 17 17 16 15 15 14 13 13 12 10 9 8 6 6 6 5 5 4 1 0 0 0 0 0 0 0 0 0 0 1 1 0 0
0 0 1 2 3 3 4 5 8 12 14 14 14 14 14 14 15 14 13 13 13 12 9 8 8 7 6 4 2 0 0 0 0 0 0 0 0 0 1 2 2 1 1
0 0 3 6 6 5 6 7 8 9 11 13 13 12 12 13 14 14 15 17 18 17 14 9 7 6 5 3 2 0 0 0 0 0 0 0 0 0 1 2 3 3 2
0 0 4 7 8 7 7 8 8 8 8 10 12 11 12 12 13 13 15 18 18 18 15 10 6 4 2 1 1 0 0 0 0 0 0 0 0 0 0 1 2 3 3
0 0 2 4 5 5 6 7 7 7 7 8 10 11 11 12 12 11 13 15 16 16 13 8 6 3 1 0 0 0 0 0 0 0 0 0 1 1 0 0 1 2 3
0 0 0 1 1 2 3 4 5 5 5 6 7 8 8 10 10 10 11 12 13 12 8 5 4 3 1 1 0 0 0 0 0 0 0 1 2 2 1 0 0 1 2
0 0 0 0 0 1 1 2 3 3 4 4 5 5 5 6 7 8 10 10 10 9 6 4 3 2 3 2 1 0 0 0 0 0 0 1 2 2 1 0 0 0 1
0 0 0 0 0 0 0 0 1 2 2 2 2 2 2 3 4 5 7 7 7 7 6 4 3 2 2 2 1 0 0 0 0 0 0 1 2 3 2 1 1 0 0
0 0 0 0 0 0 0 0 0 1 1 1 1 1 1 1 2 2 2 3 3 4 4 3 2 1 1 1 1 0 0 0 0 0 0 1 2 3 3 3 2 1 0
1 0 0 0 0 0 0 0 0 0 0 0 0 0 0 0 0 0 0 0 1 1 1 1 1 0 0 0 0 0 0 0 0 0 0 1 2 2 3 3 3 2 1
2 1 0 0 0 0 0 0 0 0 0 0 0 0 0 0 0 0 0 0 0 1 0 0 0 0 0 0 0 0 0 0 0 0 0 0 1 1 2 3 3 3 2
2 1 0 0 0 0 0 0 0 0 0 0 0 0 0 0 0 0 0 0 0 0 0 0 0 0 0 0 0 0 0 0 0 0 0 0 0 0 0 1 1 2 1
1 0 0 0 0 0 0 0 0 0 0 0 0 0 0 0 0 0 0 0 0 0 0 0 0 0 0 0 0 0 0 0 0 0 0 0 0 0 0 0 0 0 0
0 0 0 0 0 0 0 0 0 0 0 0 0 0 0 0 0 0 0 0 0 0 0 0 0 0 0 0 0 0 0 0 0 0 0 0 0 0 1 1 0 0 0
0 0 0 0 0 1 1 0 0 0 0 0 0 0 0 0 0 0 0 0 0 0 0 0 0 0 0 0 0 0 0 0 0 0 0 0 0 0 1 1 0 0 0
0 0 0 0 0 1 2 1 1 1 0 0 0 0 0 0 0 0 0 0 0 0 0 0 0 0 0 0 0 0 0 0 0 0 0 0 0 0 0 0 0 0 0
0 0 0 0 0 1 2 2 2 2 1 0 0 0 0 0 0 0 0 0 0 0 0 0 0 0 0 0 0 0 0 0 0 0 0 0 0 0 0 0 0 0 0
0 0 0 0 0 0 1 2 3 3 2 1 0 0 0 0 0 0 0 0 0 0 0 0 0 0 0 0 0 0 0 0 0 0 0 0 0 0 0 0 0 0 0
0 0 0 0 0 0 0 1 1 2 3 2 1 0 0 0 0 0 0 0 0 0 0 0 0 0 0 0 0 0 0 0 0 0 0 0 0 0 0 0 0 0 0
0 0 0 0 0 0 0 0 0 1 2 3 2 1 0 0 0 0 0 0 0 0 0 0 0 0 0 0 0 0 0 0 0 0 0 0 0 0 0 0 0 0 0
0 0 0 0 0 0 0 0 0 0 1 2 2 1 0 0 0 0 0 0 0 0 0 0 0 0 0 0 0 0 0 0 0 0 0 0 0 0 0 0 0 0 0
0 0 0 0 0 0 0 0 0 0 0 1 1 1 0 0 0 0 0 0 0 0 0 0 0 0 0 0 0 0 0 0 0 0 0 0 0 0 0 0 0 0 0
0 0 0 0 0 0 0 0 0 0 0 0 0 1 0 0 0 0 0 0 0 0 0 0 0 0 0 0 0 0 0 0 0 0 0 0 0 0 0 0 0 0 0
Wind_Speed
1 1 3 5 6 6 6 7 6 7 7 7 7 7 8 8 8 9 9 10 10 10 10 10 11 11 11 12 12 12 12 12 11 11 12 12 12 13 13 12 10 7 12
1 0 3 5 6 7 7 8 7 7 7 6 7 6 7 7 8 8 9 9 9 9 9 9 10 10 10 11 11 11 11 11 11 10 10 10 11 12 12 11 10 7 11
2 1 2 5 6 7 7 7 7 7 6 6 6 6 6 6 6 7 8 8 8 9 9 9 9 9 10 10 10 10 10 10 10 10 9 4 6 10 11 11 11 11 11
2 2 2 5 7 7 7 7 7 7 6 6 6 5 5 5 6 7 7 7 7 8 8 8 9 9 9 9 9 9 9 9 9 9 4 3 3 9 10 10 10 10 10
3 2 3 6 7 7 7 7 7 7 6 6 6 5 5 5 5 6 6 7 7 7 7 8 9 9 8 8 8 8 8 8 8 6 3 3 2 7 9 9 9 9 9
4 4 3 7 7 7 6 7 7 7 6 6 5 5 5 5 5 5 6 6 7 7 7 8 8 8 7 7 7 7 8 8 6 3 3 2 2 6 8 8 8 8 8
4 4 4 7 7 7 7 7 6 6 6 6 5 4 5 5 5 5 6 6 7 7 7 7 7 7 7 7 6 7 7 7 4 3 2 2 2 6 7 8 7 8 8
4 4 4 6 8 8 7 7 6 6 6 5 5 4 4 4 4 4 5 6 6 6 7 7 7 7 6 6 6 6 6 6 4 3 2 2 4 6 7 7 7 7 7
4 4 4 3 5 7 7 7 6 6 6 6 6 5 5 4 3 4 5 5 5 5 6 6 7 6 6 5 6 6 7 6 4 2 2 1 4 6 7 7 7 6 6
4 3 3 3 3 3 4 6 7 7 6 6 6 6 6 5 4 4 4 4 5 5 5 5 6 6 5 5 5 6 7 5 3 2 1 2 5 5 6 6 6 6 6
3 2 3 3 3 3 3 4 5 6 6 6 5 7 6 3 2 2 2 3 4 4 4 5 5 5 4 4 5 6 5 2 2 1 1 3 5 5 5 6 6 6 5
1 1 2 2 2 2 2 2 2 3 3 3 3 3 3 3 3 4 4 4 3 3 3 4 4 4 3 1 2 4 2 2 2 1 1 3 5 5 5 5 5 5 5
1 1 1 2 2 2 2 2 2 2 2 3 3 3 2 2 2 3 2 2 2 2 2 2 2 1 1 1 1 2 2 2 1 0 1 3 4 5 5 5 4 4 4
2 1 1 1 2 2 2 2 2 1 1 2 2 2 2 2 2 2 2 2 1 1 1 1 1 1 1 1 2 2 2 2 1 1 1 4 4 4 5 4 4 3 3
2 1 1 2 2 2 1 1 2 1 1 1 1 2 2 2 2 1 1 1 1 1 1 1 2 1 1 1 1 2 2 2 2 2 1 3 4 3 3 3 2 3 3
1 1 1 2 2 2 2 1 1 1 1 1 1 2 2 1 1 1 1 1 1 1 1 1 2 2 1 1 1 1 2 2 2 2 1 1 3 3 3 2 2 2 2
1 1 1 2 2 2 2 2 1 1 1 1 1 2 2 2 2 2 1 1 1 1 2 1 1 1 2 2 1 1 1 2 2 2 2 1 1 1 2 2 2 2 2
2 2 1 2 2 2 2 2 1 1 1 1 1 1 1 2 2 2 2 1 1 1 1 1 1 1 1 1 1 0 0 1 2 2 1 1 1 0 0 2 2 2 1
2 2 2 2 2 2 2 2 1 1 1 1 1 1 1 2 2 1 1 1 1 1 1 1 1 1 1 1 0 1 1 0 1 1 1 1 1 1 0 1 1 1 0
3 3 3 2 2 2 2 2 2 2 2 2 2 2 2 1 1 1 1 1 1 1 1 1 1 1 1 1 1 1 0 0 0 1 1 1 1 1 1 1 0 1 1
3 3 2 2 2 2 1 1 1 1 1 1 1 1 1 1 1 1 1 1 1 1 1 0 1 2 1 1 2 1 2 1 0 0 0 0 1 1 1 1 1 0 1
2 2 2 2 1 1 1 0 0 0 0 0 1 1 1 1 1 1 1 0 0 1 1 1 1 1 1 1 1 2 0 2 2 1 1 1 1 0 0 0 1 0 0
2 1 1 1 1 1 1 1 2 1 1 1 1 1 1 1 1 1 1 1 0 1 1 1 1 1 1 0 1 2 3 2 1 1 1 1 1 1 1 1 1 1 1
1 1 1 1 1 1 1 2 1 1 1 1 1 1 1 1 1 0 0 1 1 1 1 1 1 1 2 1 0 0 1 2 2 1 2 1 1 1 1 1 1 1 1
1 1 1 1 1 1 1 1 1 1 1 1 1 1 1 1 1 1 0 1 1 1 1 1 1 1 2 2 1 0 0 0 0 2 2 2 1 1 1 2 1 1 1
1 1 1 1 1 1 1 1 1 1 1 1 1 1 1 1 1 1 1 1 1 1 2 2 2 2 2 2 2 1 1 1 1 1 2 2 2 2 2 1 1 1 1
Wind_Direction
316 304 76 69 68 76 78 81 88 100 101 100 96 94 99 99 98 102 106 108 107 108 106 103 100 99 99 97 96 98 97 95 96 97 96 96 96 96 95 91 90 86 91
210 109 84 72 76 79 78 76 81 94 97 100 98 97 100 103 101 104 109 109 110 112 112 108 104 102 100 101 100 100 98 94 92 93 92 93 98 100 100 100 97 96 95
78 80 90 82 82 80 78 78 77 85 93 97 98 101 101 107 108 109 110 111 112 113 115 114 110 108 103 102 104 104 99 95 93 93 87 77 93 104 104 104 102 100 98
71 70 81 91 93 87 84 80 78 77 86 94 98 100 101 107 112 113 112 113 113 113 115 117 114 113 109 105 105 107 104 99 97 95 81 71 89 107 109 109 107 104 102
60 48 74 94 96 91 86 82 79 75 76 86 91 97 101 104 114 116 114 114 115 115 115 114 114 117 114 109 105 108 109 105 101 90 87 81 86 109 112 113 111 110 108
52 37 61 85 92 88 85 84 81 78 74 75 81 88 101 102 113 117 114 114 116 120 119 116 114 118 120 117 110 110 112 109 97 82 94 94 97 114 115 116 115 116 114
60 39 49 70 78 83 83 84 81 76 75 71 73 80 89 96 105 116 120 121 120 122 127 127 125 125 128 125 120 116 111 105 97 90 96 103 115 123 124 121 122 123 122
79 55 47 62 71 70 74 79 80 73 69 68 66 73 86 87 98 111 118 123 123 127 131 133 131 130 127 129 128 122 112 106 105 104 106 117 123 125 129 129 126 126 127
77 66 48 45 62 67 67 70 70 68 64 61 60 60 67 77 91 110 116 119 116 116 125 129 132 131 128 124 122 115 109 105 100 108 124 136 132 130 132 132 130 129 128
70 65 54 44 51 53 54 62 60 58 56 54 51 50 56 60 73 95 109 116 115 113 118 129 135 134 130 123 111 110 107 106 96 99 115 136 134 135 134 137 135 133 127
57 54 61 56 50 52 59 58 55 54 51 50 46 51 52 37 47 71 74 103 117 116 120 130 136 128 118 112 106 102 105 102 98 94 115 127 141 143 134 136 134 131 129
63 50 63 74 67 69 69 57 40 43 44 41 35 39 43 46 45 53 54 64 84 102 111 111 111 109 102 93 100 98 100 108 99 111 124 129 143 138 133 134 133 131 127
137 85 76 97 93 90 77 71 48 36 36 39 36 31 38 51 52 50 50 44 50 76 101 93 86 70 90 100 103 100 107 112 110 108 104 126 139 134 125 122 124 119 115
81 72 69 99 93 88 88 86 77 60 42 35 28 28 52 60 56 50 56 43 44 61 84 95 102 73 73 94 117 116 115 125 130 121 99 113 126 127 122 118 121 125 119
92 71 60 88 93 88 84 79 80 78 74 65 38 36 61 74 69 59 52 56 49 49 84 119 115 106 94 91 108 124 130 135 130 124 118 117 122 120 125 127 130 140 141
120 85 70 77 95 90 92 89 83 95 87 67 59 47 59 81 85 73 59 51 51 52 33 148 140 139 143 124 98 127 140 137 124 128 118 115 114 123 133 140 139 134 137
126 106 83 97 86 96 102 101 79 88 105 83 66 54 57 66 77 83 72 48 19 47 50 45 101 124 126 114 97 110 137 142 129 132 126 121 137 115 126 145 137 134 131
102 97 91 83 82 87 91 89 80 79 94 90 70 60 61 64 69 84 81 52 20 46 74 78 54 109 121 113 124 102 79 134 139 148 132 128 132 125 180 131 138 142 145
119 103 85 78 91 96 85 71 68 74 74 64 53 45 51 59 73 90 91 62 42 55 55 70 74 124 126 104 130 111 59 93 161 143 141 146 150 141 141 90 84 93 169
109 96 84 70 62 78 79 71 61 60 56 50 50 37 46 46 64 92 87 64 71 73 54 52 79 72 113 136 125 83 43 288 166 154 177 173 181 174 151 132 82 348 344
95 92 92 86 58 68 69 76 86 59 35 36 39 33 43 42 50 86 76 59 75 103 112 93 115 97 62 87 94 53 355 346 348 260 190 157 184 192 158 145 133 110 312
116 110 105 101 100 97 84 70 202 187 251 25 8 7 19 44 41 70 91 101 109 112 93 98 105 117 83 92 127 127 338 331 314 293 257 206 221 196 183 155 145 171 257
107 131 130 120 108 109 74 69 53 42 21 10 357 347 343 6 50 72 121 136 124 135 166 181 147 141 159 178 123 143 157 211 275 300 267 239 228 215 226 214 203 211 216
173 152 129 129 102 94 101 102 116 138 215 254 268 288 329 346 16 42 145 151 155 162 178 218 171 169 162 190 237 272 157 151 165 284 313 299 267 240 238 243 230 237 232
153 137 122 101 87 78 107 151 156 178 242 283 302 306 321 322 315 323 250 188 191 203 207 201 205 196 185 186 186 180 158 72 140 169 240 289 310 278 259 245 231 235 240
103 92 89 92 71 64 124 187 179 195 232 293 309 285 282 289 290 303 288 242 226 221 222 215 207 208 209 197 191 185 173 172 189 179 214 243 256 275 281 264 238 240 247